Weather History for KLHX - January, 2014

Change the Weather History Date:

Saturday, January 4, 2014

  Actual Average Record
Temperature  
Mean Temperature 30 °F 30 °F  
Max Temperature 47 °F 44 °F 73 °F (1956)
Min Temperature 13 °F 17 °F -22 °F (1959)
Degree Days  
Heating Degree Days 35 35  
Month to date heating degree days 120 140  
Since 1 July heating degree days 2199 2343  
Cooling Degree Days 0 0  
Month to date cooling degree days 0 0  
Year to date cooling degree days 0 0  
Moisture  
Dew Point 18 °F    
Average Humidity 59    
Maximum Humidity 92    
Minimum Humidity 25    
Precipitation  
Precipitation 0.02 in 0.01 in 0.03 in (2005)
Month to date precipitation 0.02 0.04  
Year to date precipitation 0.02 0.04  
Sea Level Pressure  
Sea Level Pressure 29.96 in    
Wind  
Wind Speed 11 mph (NNE)    
Max Wind Speed 29 mph    
Max Gust Speed 33 mph    
Visibility 4 miles    
Events Fog , Snow    
T = Trace of Precipitation, MM = Missing Value Source: NWS Daily Summary

Daily Weather History Graph

Daily Weather History Graph

Search for Another Location

Airport or City:

Trip Planner

Search our weather history database for the weather conditions in past years. The results will help you decide how hot, cold, wet, or windy it might be!

Date:

Astronomy

Jan. 04, 2014 Rise Set
Actual Time 7:10 AM MST 4:47 PM MST
Civil Twilight 6:41 AM MST 5:17 PM MST
Nautical Twilight 6:08 AM MST 5:49 PM MST
Astronomical Twilight 5:36 AM MST 6:21 PM MST
Moon 9:21 AM MST (1/4) 9:05 PM MST (1/4)
Length of Visible Light 10h 35m
Length of Day
9h 37m
Waxing Crescent, 16% of the Moon is Illuminated
Jan 4
Waxing Crescent
Jan 7
First Quarter
Jan 15
Full
Jan 23
Last Quarter
Jan 30
New

Hourly Weather History & Observations

Time (MST) Temp. Windchill Dew Point Humidity Pressure Visibility Wind Dir Wind Speed Gust Speed Precip Events Conditions
12:53 AM 41.0 °F 39.0 °F 9.0 °F 27% 29.58 in 10.0 mi West 3.5 mph - N/A   Clear
1:53 AM 41.0 °F 36.4 °F 10.9 °F 29% 29.62 in 10.0 mi East 6.9 mph - N/A   Clear
2:53 AM 39.0 °F 29.3 °F 19.9 °F 46% 29.66 in 10.0 mi NE 19.6 mph - N/A   Clear
3:53 AM 30.9 °F 22.8 °F 21.0 °F 67% 29.74 in 10.0 mi NE 9.2 mph - N/A   Clear
4:53 AM 27.0 °F 18.0 °F 19.0 °F 72% 29.76 in 10.0 mi NE 9.2 mph - N/A   Clear
5:53 AM 25.0 °F 18.1 °F 19.0 °F 78% 29.82 in 10.0 mi NNW 5.8 mph - N/A   Clear
6:53 AM 28.9 °F 25.2 °F 19.9 °F 69% 29.86 in 10.0 mi NNE 3.5 mph - N/A   Clear
7:53 AM 27.0 °F 17.3 °F 19.0 °F 72% 29.89 in 10.0 mi NNE 10.4 mph - N/A   Clear
8:53 AM 30.0 °F 19.1 °F 18.0 °F 61% 29.90 in 10.0 mi NNE 15.0 mph - N/A   Overcast
9:53 AM 30.0 °F 19.1 °F 19.0 °F 64% 29.91 in 10.0 mi NNE 15.0 mph - N/A   Overcast
10:53 AM 30.0 °F 19.1 °F 18.0 °F 61% 29.89 in 10.0 mi NNE 15.0 mph - N/A   Overcast
11:24 AM 30.0 °F 20.0 °F 19.0 °F 64% 29.89 in 10.0 mi NNE 12.7 mph - N/A   Overcast
11:53 AM 28.9 °F 18.2 °F 19.0 °F 67% 29.88 in 10.0 mi NE 13.8 mph - N/A   Overcast
12:53 PM 28.0 °F 15.7 °F 18.0 °F 66% 29.87 in 10.0 mi NE 17.3 mph - N/A   Overcast
1:38 PM 26.1 °F 14.5 °F 21.9 °F 84% 29.87 in 1.8 mi NE 13.8 mph - 0.00 in Snow Light Snow
1:42 PM 25.0 °F 12.2 °F 21.9 °F 88% 29.87 in 0.8 mi NE 16.1 mph - 0.00 in Snow Light Snow
1:51 PM 24.8 °F 12.9 °F 21.2 °F 86% 29.87 in 0.2 mi NNE 13.8 mph - 0.00 in Fog , Snow Snow
1:53 PM 25.0 °F 13.6 °F 21.9 °F 88% 29.90 in 0.2 mi NE 12.7 mph - 0.00 in Fog , Snow Heavy Snow
2:01 PM 25.0 °F 12.2 °F 23.0 °F 92% 29.87 in 0.2 mi ENE 16.1 mph - 0.00 in Fog , Snow Heavy Snow
2:42 PM 24.1 °F 10.6 °F 21.0 °F 88% 29.89 in 0.8 mi NE 17.3 mph - 0.01 in Snow Light Snow
2:51 PM 24.8 °F 11.5 °F 21.2 °F 86% 29.90 in 0.8 mi NE 17.3 mph - 0.01 in Snow Light Snow
2:53 PM 24.1 °F 10.6 °F 21.0 °F 88% 29.94 in 0.8 mi NE 17.3 mph - 0.01 in Snow Light Snow
3:03 PM 24.1 °F 9.4 °F 19.9 °F 84% 29.91 in 1.0 mi NNE 20.7 mph - 0.00 in Snow Light Snow
3:17 PM 24.1 °F 10.6 °F 19.9 °F 84% 29.92 in 0.8 mi NNE 17.3 mph - 0.00 in Snow Light Snow
3:35 PM 23.0 °F 8.7 °F 19.9 °F 88% 29.93 in 1.2 mi NNE 18.4 mph - 0.00 in Snow Light Snow
3:42 PM 23.0 °F 9.2 °F 19.9 °F 88% 29.93 in 1.0 mi NNE 17.3 mph - 0.00 in Snow Light Snow
3:53 PM 23.0 °F 8.3 °F 19.9 °F 88% 30.01 in 1.0 mi NNE 19.6 mph - 0.00 in Snow Light Snow
4:04 PM 23.0 °F 9.2 °F 19.9 °F 88% 29.94 in 1.2 mi NNE 17.3 mph - 0.00 in Snow Light Snow
4:53 PM 21.9 °F 8.2 °F 19.0 °F 89% 30.07 in 1.8 mi NNE 16.1 mph - 0.00 in Snow Light Snow
5:03 PM 21.9 °F 8.7 °F 19.0 °F 89% 30.00 in 2.0 mi NNE 15.0 mph - 0.00 in Snow Light Snow
5:11 PM 21.9 °F 9.8 °F 19.0 °F 89% 30.00 in 1.2 mi NNE 12.7 mph - 0.00 in Snow Light Snow
5:17 PM 21.9 °F 11.0 °F 19.0 °F 89% 30.01 in 1.0 mi NNE 10.4 mph - 0.00 in Snow Light Snow
5:26 PM 21.9 °F 10.4 °F 19.0 °F 89% 30.01 in 0.8 mi NNE 11.5 mph - 0.00 in Snow Light Snow
5:40 PM 21.9 °F 11.7 °F 19.0 °F 89% 30.02 in 1.0 mi NNE 9.2 mph - 0.00 in Snow Light Snow
5:53 PM 21.9 °F 10.4 °F 19.0 °F 89% 30.12 in 1.0 mi NNE 11.5 mph - 0.00 in Snow Light Snow
6:13 PM 21.0 °F 8.1 °F 18.0 °F 88% 30.05 in 1.0 mi North 13.8 mph - 0.01 in Snow Light Snow
6:19 PM 21.0 °F 8.1 °F 18.0 °F 88% 30.05 in 1.2 mi NNE 13.8 mph - 0.01 in Snow Light Snow
6:53 PM 19.9 °F 6.7 °F 16.0 °F 85% 30.15 in 1.5 mi North 13.8 mph - 0.01 in Snow Light Snow
7:49 PM 19.4 °F 8.6 °F 15.8 °F 86% 30.08 in 2.0 mi North 9.2 mph - 0.00 in Snow Light Snow
7:53 PM 19.9 °F 7.9 °F 16.0 °F 85% 30.17 in 2.0 mi North 11.5 mph - 0.00 in Snow Light Snow
8:03 PM 19.9 °F 8.6 °F 16.0 °F 85% 30.09 in 1.8 mi North 10.4 mph - 0.00 in Snow Light Snow
8:15 PM 19.9 °F 11.1 °F 16.0 °F 85% 30.10 in 2.0 mi North 6.9 mph - 0.00 in Snow Light Snow
8:32 PM 19.9 °F 11.1 °F 17.1 °F 89% 30.10 in 3.0 mi North 6.9 mph - 0.00 in Snow Light Snow
8:39 PM 19.9 °F 11.1 °F 17.1 °F 89% 30.10 in 4.0 mi NNW 6.9 mph - 0.00 in Snow Light Snow
8:53 PM 19.9 °F 11.1 °F 17.1 °F 89% 30.18 in 3.0 mi NNW 6.9 mph - 0.00 in Snow Light Snow
9:01 PM 19.9 °F 10.1 °F 17.1 °F 89% 30.10 in 2.0 mi NNW 8.1 mph - 0.00 in Snow Light Snow
9:08 PM 19.9 °F 12.1 °F 17.1 °F 89% 30.10 in 2.0 mi NNW 5.8 mph - 0.00 in Snow Light Snow
9:18 PM 19.0 °F 10.0 °F 17.1 °F 92% 30.10 in 3.0 mi NNW 6.9 mph - 0.00 in Snow Light Snow
9:53 PM 19.0 °F 11.1 °F 16.0 °F 88% 30.19 in 10.0 mi NW 5.8 mph - 0.00 in   Overcast
10:53 PM 17.1 °F 8.7 °F 14.0 °F 88% 30.19 in 10.0 mi WNW 5.8 mph - 0.00 in   Overcast
11:53 PM 14.0 °F 2.9 °F 10.0 °F 84% 30.21 in 10.0 mi West 8.1 mph - N/A   Overcast